Regional Weather Roundup
Issued by NWS Cleveland, OH

Home | Current Version | Previous Version | Text Only | Print | Product List | Glossary Off
Versions: 1 2 3 4 5 6 7 8 9 10 11 12 13 14 15 16 17 18 19 20 21 22 23 24 25 26 27 28 29 30 31 32 33 34 35 36 37 38 39 40 41 42 43 44 45 46 47 48 49 50

666
ASUS41 KCLE 290312
RWRCLE
OHIO REGIONAL WEATHER ROUNDUP
NATIONAL WEATHER SERVICE WILMINGTON, OH
1100 PM EDT THU JUL 28 2016

NOTE: "FAIR" INDICATES FEW OR NO CLOUDS BELOW 12,000 FEET WITH NO
SIGNIFICANT WEATHER AND/OR OBSTRUCTIONS TO VISIBILITY.

OHZ001>008-015>018-024>027-034-035-043-044-290400-
   NORTHWEST OHIO

CITY           SKY/WX    TMP DP  RH WIND       PRES   REMARKS
DEFIANCE       FAIR      74  67  78 CALM      29.91R
FINDLAY        FAIR      77  64  64 NE5       29.91R
TOLEDO EXPRESS FAIR      73  66  78 CALM      29.91R
TOLEDO EXEC    FAIR      77  73  87 E5        29.91S
LIMA           FAIR      72  67  84 CALM      29.92R
$$

OHZ009>014-019>023-028>033-038-089-290400-
   NORTHEAST OHIO

CITY           SKY/WX    TMP DP  RH WIND       PRES   REMARKS
CLE-HOPKINS    MOCLDY    76  67  73 N5        29.92S
CLE-LAKEFRONT  FAIR      76  68  76 NE8       29.89R
CUY CO. ARPT   PTCLDY    73  72  94 CALM      29.92R
LORAIN-ELYRIA  FAIR      68  63  84 CALM      29.91R
ASHTABULA      FAIR      68  67  96 SE5       29.92S
AKRON-CANTON   FAIR      70  66  87 S3        29.92S
WOOSTER        FAIR      66  65  96 CALM      29.93R FOG
MANSFIELD      FAIR      71  63  75 CALM      29.93S
YOUNGSTOWN     MOCLDY    70  65  84 S5        29.93R
$$

OHZ042-051>053-060>062-070>072-077>081-290400-
  SOUTHWEST OHIO

CITY           SKY/WX    TMP DP  RH WIND       PRES   REMARKS
CINC-COVINGTON FAIR      76  73  91 CALM      29.92R
CINC-LUNKEN    FAIR      74  73  97 CALM      29.92R
HAMILTON       FAIR      70  68  93 CALM      29.91R
DAYTON         FAIR      75  66  73 SW7       29.92R
WRIGHT-PAT AFB NOT AVBL
DAYTON GENERAL FAIR      74  68  81 S3        29.91R
WILMINGTON     FAIR      71  70  96 S3        29.93R
$$

OHZ036-037-039>041-045>050-054>059-063>069-073>076-082>088-290400-
  CENTRAL AND SOUTHEAST OHIO

CITY           SKY/WX    TMP DP  RH WIND       PRES   REMARKS
COLUMBUS       FAIR      72  72 100 CALM      29.91R
OSU AIRPORT    FAIR      69  68  96 CALM      29.92R FOG
BOLTON FIELD     N/A     67  67 100 CALM      29.92R FOG
RICKENBACK AFB FAIR      70  70 100 CALM      29.91R
NEWARK         FAIR      70  69  97 W3        29.91R FOG
MARION         FAIR      72  68  87 CALM      29.92R
LANCASTER      FAIR      71  70  96 CALM      29.92R
ZANESVILLE     MOCLDY    74  71  91 S3        29.91S
NEW PHILLY     FAIR      72  68  87 CALM      29.92S
$$




USA.gov is the U.S. government's official web portal to all federal, state and local government web resources and services.